Home   Weather   Vejle   Past weeks

Flag for Denmark Past Weather in Vejle, Denmark — Yesterday and Last 2 Weeks

Now
59 °F

Sprinkles. Fog.


Feels Like: 57 °F
Forecast: 57 / 65 °F
Wind: 12 mph from Southwest

Location: Billund Lufthavn

Current Time: Sep 28, 2016 at 2:16:24 AM

Latest Report: Sep 28, 2016 at 1:20 AM


Visibility: 2 mi

Pressure: 30.04 "Hg

Humidity: 94%

Dew Point: 57 °F

Location of VejleLocation

Past Weather in Vejle — Graph

°F

Vejle Temperature Yesterday

Maximum temperature yesterday: 66 °F (at 1:50 PM)
Minimum temperature yesterday: 37 °F (at 4:20 AM)
Average temperature yesterday: 54 °F

High & Low Weather Summary for the Past Weeks

 TemperatureHumidityPressure
High84 °F (Sep 13, 3:20 PM)100% (Sep 16, 5:50 AM)30.27 "Hg (Sep 16, 5:50 AM)
Low37 °F (Sep 27, 4:20 AM)40% (Sep 13, 5:20 PM)29.92 "Hg (Sep 16, 11:50 AM)
Average60 °F77%30.12 "Hg
* Reported Sep 13 1:20 AM — Sep 28 1:20 AM, Vejle, Weather by CustomWeather, © 2016

Note: Actual official high and low records may vary slightly from our data, if they occured in-between our weather recording intervals... More about our weather records

Advertising

Vejle Weather History for the Previous 24 Hours

Scroll right to see more
 ConditionsComfort  
Time TempWeatherWind HumidityBarometerVisibility
1:20 AM
Wed, Sep 28
59 °FSprinkles. Fog.12 mph94%30.04 "Hg2 mi
12:50 AM61 °FSprinkles. Overcast.20 mph83%30.04 "Hg4 mi
12:20 AM63 °FOvercast.22 mph73%30.07 "HgN/A
11:50 PM
Tue, Sep 27
63 °FOvercast.16 mph68%30.07 "HgN/A
11:20 PM63 °FOvercast.14 mph68%30.07 "HgN/A
10:50 PM63 °FOvercast.15 mph73%30.09 "HgN/A
10:20 PM61 °FMostly cloudy.13 mph77%30.09 "HgN/A
9:50 PM61 °FPassing clouds.12 mph77%30.09 "HgN/A
9:20 PM61 °FPassing clouds.12 mph77%30.12 "HgN/A
8:50 PM61 °FPassing clouds.12 mph77%30.15 "HgN/A
8:20 PM61 °FPartly cloudy.12 mph72%30.15 "HgN/A
7:50 PM63 °FPassing clouds.9 mph64%30.15 "HgN/A
7:20 PM63 °FPassing clouds.10 mph64%30.18 "HgN/A
6:50 PM63 °FScattered clouds.13 mph64%30.18 "HgN/A
6:20 PM64 °FPassing clouds.12 mph56%30.18 "HgN/A
5:50 PM64 °FMild.15 mph52%30.18 "HgN/A
5:20 PM64 °FMild.15 mph56%30.21 "HgN/A
4:50 PM64 °FPassing clouds.13 mph56%30.21 "HgN/A
4:20 PM66 °FScattered clouds.13 mph52%30.21 "HgN/A
3:50 PM66 °FScattered clouds.13 mph56%30.21 "HgN/A
3:20 PM66 °FPartly sunny.15 mph56%30.21 "HgN/A
2:50 PM66 °FPassing clouds.13 mph56%30.24 "HgN/A
2:20 PM66 °FScattered clouds.12 mph52%30.24 "HgN/A
1:50 PM66 °FPassing clouds.12 mph49%30.24 "HgN/A
1:20 PM64 °FPassing clouds.10 mph60%30.27 "HgN/A
12:50 PM64 °FMild.8 mph60%30.27 "HgN/A
12:20 PM64 °FMild.7 mph60%30.27 "HgN/A
11:50 AM63 °FMild.7 mph59%30.27 "HgN/A
11:20 AM63 °FMild.6 mph64%30.27 "HgN/A
10:50 AM61 °FCool.5 mph68%30.27 "HgN/A
10:20 AM59 °FCool.7 mph72%30.27 "HgN/A
9:50 AM57 °FCool.3 mph82%30.27 "HgN/A
9:20 AM52 °FCool.1 mph94%30.27 "HgN/A
8:50 AM46 °FSunny.2 mph93%30.27 "Hg10 mi
8:20 AM39 °FSunny.2 mph100%30.27 "HgN/A
7:58 AM39 °FSunny.2 mph93%30.27 "HgN/A
7:20 AM37 °FSunny.3 mph100%30.27 "Hg1 mi
6:50 AM37 °FClear.3 mph93%30.27 "Hg1 mi
6:20 AM41 °FClear.2 mph93%30.27 "Hg1 mi
5:50 AM39 °FClear.No wind100%30.27 "Hg1 mi
5:20 AM37 °FClear.1 mph100%30.27 "HgN/A
4:50 AM41 °FFog.No wind93%30.27 "HgN/A
4:20 AM37 °FFog.1 mph100%30.27 "Hg0 mi
3:50 AM39 °FLight fog.1 mph93%30.27 "Hg0 mi
3:20 AM41 °FFog.1 mph100%30.27 "Hg0 mi
2:50 AM45 °FLight fog.3 mph100%30.27 "Hg1 mi
2:20 AM43 °FFog.1 mph100%30.27 "HgN/A
Weather by CustomWeather, © 2016

See weather overviewHow to use our weather pages